Regional Weather Roundup
Issued by NWS

Home | Current Version | Previous Version | Text Only | Print | Product List | Glossary On
Versions: 1 2 3 4 5 6 7 8 9 10 11 12 13 14 15 16 17 18 19 20 21 22 23 24 25 26 27
000
ASUS45 KBOI 291410
RWRID

IDAHO REGIONAL WEATHER ROUNDUP
NATIONAL WEATHER SERVICE BOISE ID
800 AM MDT SUN MAY 29 2016

NOTE: "FAIR" INDICATES FEW OR NO CLOUDS BELOW 12000 FEET
WITH NO SIGNIFICANT WEATHER AND/OR OBSTRUCTIONS TO VISIBILITY

IDZ012-014-291500-
SOUTHWEST IDAHO


CITY           SKY/WX    TMP DP  RH WIND       PRES   REMARKS
BOISE          SUNNY     56  34  43 SE9       30.03S
CALDWELL       SUNNY     52  39  61 E5        30.04R
MOUNTAIN HOME  SUNNY     54  40  59 E15       30.05S
$$

IDZ016-017-291500-
SOUTHCENTRAL IDAHO


CITY           SKY/WX    TMP DP  RH WIND       PRES   REMARKS
BURLEY         SUNNY     47  41  80 NW3       30.09S
JEROME         SUNNY     51  37  58 NE9       30.10R
TWIN FALLS     SUNNY     53  40  61 S5        30.10R
$$

IDZ019>023-291500-
SOUTHEAST IDAHO


CITY           SKY/WX    TMP DP  RH WIND       PRES   REMARKS
IDAHO FALLS    SUNNY     44  38  79 N7        30.14S
POCATELLO      SUNNY     48  38  68 N3        30.13R
REXBURG        SUNNY     43  34  70 NE3       30.15R
$$

IDZ006-010-011-018-031-032-291500-
CENTRAL IDAHO MOUNTAINS


CITY           SKY/WX    TMP DP  RH WIND       PRES   REMARKS
MCCALL         SUNNY     41  34  76 CALM      30.09S
HAILEY         SUNNY     43  30  61 NW12      30.16R
STANLEY          N/A     35  27  72 CALM      30.20R
SALMON         SUNNY     41  36  81 CALM      30.12S
CHALLIS        SUNNY     46  29  51 CALM      30.14R
$$

IDZ002-004-006-007-026-291500-
NORTHERN IDAHO


CITY           SKY/WX    TMP DP  RH WIND       PRES   REMARKS
LEWISTON       MOSUNNY   53  43  68 CALM      30.02R
LOWELL           N/A     46  42  86 N5        30.08F
COEUR D`ALENE  MOSUNNY   48  43  81 NE6       29.98S
MULLAN PASS    SUNNY     43  33  68 VRB5      30.06S
$$




USA.gov is the U.S. government's official web portal to all federal, state and local government web resources and services.